RYR51WN LFMK-EGSS

Flight info

Callsign RYR51WN
Flight time 1h 46m
Altitude 34000
Route GALDO DCT TOU DCT CHALA DCT TUPAR UN861 DIKRO UM185 TELTU
Aircraft B38M/M-SDE1FGHILORVWXY/HB1

Departure

Time 2026-04-22 14:44
Airport Carcassonne Salvaza Airport (LFMK)

Arrival

Time 2026-04-22 16:30
Airport London Stansted Airport (EGSS)
Time Latitude Longitude Altitude Speed Heading
2026-04-22 14:08 43.21399 2.30684 417 ft 0 kts 321°
2026-04-22 14:38 43.21399 2.30683 426 ft 1 kts 321°
2026-04-22 14:38 43.21411 2.30670 416 ft 4 kts 321°
2026-04-22 14:39 43.21437 2.30638 426 ft 6 kts 306°
2026-04-22 14:39 43.21450 2.30568 419 ft 9 kts 276°
2026-04-22 14:39 43.21461 2.30484 423 ft 9 kts 300°
2026-04-22 14:40 43.21523 2.30474 426 ft 5 kts
2026-04-22 14:40 43.21561 2.30480 421 ft 6 kts
2026-04-22 14:40 43.21603 2.30472 427 ft 6 kts 325°
2026-04-22 14:40 43.21618 2.30407 428 ft 10 kts 275°
2026-04-22 14:41 43.21630 2.30255 421 ft 22 kts 276°
2026-04-22 14:41 43.21650 2.30012 428 ft 27 kts 276°
2026-04-22 14:41 43.21671 2.29743 420 ft 28 kts 276°
2026-04-22 14:41 43.21688 2.29533 425 ft 17 kts 276°
2026-04-22 14:42 43.21697 2.29416 425 ft 7 kts 276°
2026-04-22 14:42 43.21719 2.29364 420 ft 4 kts 314°
2026-04-22 14:42 43.21722 2.29347 420 ft 0 kts 252°
2026-04-22 14:42 43.21714 2.29342 417 ft 0 kts 194°
2026-04-22 14:43 43.21701 2.29353 418 ft 3 kts 128°
2026-04-22 14:43 43.21698 2.29385 419 ft 1 kts 96°
2026-04-22 14:43 43.21697 2.29391 420 ft 0 kts 96°
2026-04-22 14:43 43.21697 2.29396 421 ft 7 kts 96°
2026-04-22 14:44 43.21659 2.29886 427 ft 94 kts 96°
2026-04-22 14:44 43.21554 2.31101 570 ft 150 kts 95°
2026-04-22 14:44 43.21433 2.32645 1223 ft 170 kts 92°
2026-04-22 14:44 43.21750 2.34229 2121 ft 191 kts 59°
2026-04-22 14:45 43.22993 2.35401 2538 ft 247 kts 20°
2026-04-22 14:45 43.24766 2.35262 3554 ft 271 kts 342°
2026-04-22 14:45 43.26356 2.33736 4568 ft 289 kts 309°
2026-04-22 14:45 43.27109 2.31254 5978 ft 281 kts 275°
2026-04-22 14:46 43.26754 2.28673 7436 ft 276 kts 249°
2026-04-22 14:46 43.25811 2.26351 8693 ft 278 kts 239°
2026-04-22 14:46 43.24652 2.24263 10088 ft 272 kts 233°
2026-04-22 14:46 43.23563 2.22090 10885 ft 284 kts 243°
2026-04-22 14:47 43.22609 2.19642 11553 ft 297 kts 252°
2026-04-22 14:47 43.22423 2.16885 12453 ft 300 kts 277°
2026-04-22 14:47 43.22756 2.14031 13362 ft 304 kts 276°
2026-04-22 14:47 43.23020 2.11155 14366 ft 304 kts 276°
2026-04-22 14:48 43.23276 2.08239 15097 ft 311 kts 276°
2026-04-22 14:48 43.23527 2.05281 15959 ft 313 kts 277°
2026-04-22 14:48 43.23775 2.02302 16783 ft 317 kts 277°
2026-04-22 14:48 43.24025 1.99256 17444 ft 325 kts 277°
2026-04-22 14:49 43.24277 1.96148 18195 ft 328 kts 278°
2026-04-22 14:49 43.24531 1.93017 18869 ft 333 kts 277°
2026-04-22 14:49 43.24779 1.89839 19508 ft 336 kts 277°
2026-04-22 14:49 43.25026 1.86627 20131 ft 341 kts 277°
2026-04-22 14:50 43.25272 1.83415 20782 ft 344 kts 277°
2026-04-22 14:50 43.25524 1.80125 21378 ft 348 kts 277°
2026-04-22 14:50 43.25985 1.76855 22018 ft 350 kts 290°
2026-04-22 14:50 43.27202 1.73960 22655 ft 354 kts 309°
2026-04-22 14:51 43.29028 1.71658 23240 ft 360 kts 320°
2026-04-22 14:51 43.31006 1.69516 23773 ft 364 kts 320°
2026-04-22 14:51 43.33003 1.67399 24250 ft 367 kts 320°
2026-04-22 14:51 43.35046 1.65259 24762 ft 370 kts 321°
2026-04-22 14:52 43.37105 1.63122 25251 ft 373 kts 321°
2026-04-22 14:52 43.39182 1.60974 25751 ft 375 kts 321°
2026-04-22 14:52 43.41282 1.58804 26235 ft 378 kts 321°
2026-04-22 14:52 43.43392 1.56624 26735 ft 380 kts 321°
2026-04-22 14:53 43.45482 1.54465 27235 ft 381 kts 321°
2026-04-22 14:53 43.47614 1.52259 27670 ft 384 kts 321°
2026-04-22 14:53 43.49763 1.50033 28049 ft 389 kts 321°
2026-04-22 14:53 43.51941 1.47776 28524 ft 391 kts 321°
2026-04-22 14:54 43.54123 1.45512 28969 ft 393 kts 321°
2026-04-22 14:54 43.56317 1.43234 29419 ft 395 kts 321°
2026-04-22 14:54 43.58521 1.40943 29847 ft 398 kts 321°
2026-04-22 14:54 43.60709 1.38668 30234 ft 400 kts 321°
2026-04-22 14:55 43.62931 1.36354 30607 ft 401 kts 321°
2026-04-22 14:55 43.65164 1.34028 31045 ft 401 kts 321°
2026-04-22 14:55 43.67390 1.31710 31548 ft 399 kts 322°
2026-04-22 14:55 43.69796 1.29794 32030 ft 400 kts 333°
2026-04-22 14:56 43.72296 1.28121 32504 ft 397 kts 331°
2026-04-22 14:56 43.74769 1.26421 32973 ft 396 kts 331°
2026-04-22 14:56 43.77238 1.24730 33439 ft 394 kts 331°
2026-04-22 14:56 43.79693 1.23048 33878 ft 393 kts 331°
2026-04-22 14:57 43.82126 1.21381 34013 ft 393 kts 331°
2026-04-22 14:57 43.84562 1.19711 34007 ft 389 kts 331°
2026-04-22 14:57 43.89410 1.16382 33988 ft 388 kts 331°
2026-04-22 14:58 43.94249 1.13053 33975 ft 389 kts 331°
2026-04-22 14:58 43.99109 1.09704 33977 ft 389 kts 331°
2026-04-22 14:59 44.03940 1.06368 33995 ft 388 kts 331°
2026-04-22 14:59 44.08777 1.03022 33971 ft 388 kts 331°
2026-04-22 15:00 44.13605 0.99677 33980 ft 387 kts 331°
2026-04-22 15:00 44.18440 0.96321 33978 ft 387 kts 331°
2026-04-22 15:01 44.23231 0.92988 33975 ft 387 kts 331°
2026-04-22 15:01 44.28050 0.89630 33971 ft 386 kts 331°
2026-04-22 15:02 44.32862 0.86271 33973 ft 386 kts 331°
2026-04-22 15:02 44.37679 0.82901 33970 ft 386 kts 331°
2026-04-22 15:03 44.42464 0.79549 33986 ft 386 kts 331°
2026-04-22 15:03 44.47258 0.76183 33956 ft 385 kts 330°
2026-04-22 15:04 44.52079 0.72794 33971 ft 389 kts 330°
2026-04-22 15:04 44.56916 0.69385 33970 ft 388 kts 330°
2026-04-22 15:05 44.61744 0.65977 33983 ft 388 kts 330°
2026-04-22 15:05 44.66570 0.62564 33966 ft 388 kts 330°
2026-04-22 15:06 44.71372 0.59162 33968 ft 388 kts 330°
2026-04-22 15:06 44.76191 0.55740 33965 ft 388 kts 330°
2026-04-22 15:07 44.81013 0.52311 33969 ft 388 kts 330°
2026-04-22 15:07 44.85836 0.48874 33964 ft 388 kts 330°
2026-04-22 15:08 44.90628 0.45454 33967 ft 388 kts 330°
2026-04-22 15:08 44.95439 0.42012 33965 ft 388 kts 330°
2026-04-22 15:09 45.00254 0.38561 33982 ft 388 kts 330°
2026-04-22 15:09 45.05075 0.35101 33968 ft 389 kts 330°
2026-04-22 15:10 45.09896 0.31633 33971 ft 389 kts 330°
2026-04-22 15:10 45.14712 0.28162 33967 ft 388 kts 330°
2026-04-22 15:11 45.19530 0.24683 33978 ft 388 kts 330°
2026-04-22 15:11 45.24324 0.21217 33969 ft 389 kts 330°
2026-04-22 15:12 45.29141 0.17727 33967 ft 388 kts 330°
2026-04-22 15:12 45.33962 0.14227 33966 ft 388 kts 330°
2026-04-22 15:13 45.38776 0.10739 33969 ft 388 kts 330°
2026-04-22 15:13 45.43595 0.07246 33970 ft 389 kts 330°
2026-04-22 15:14 45.48393 0.03762 33969 ft 389 kts 330°
2026-04-22 15:14 45.53221 0.00249 33969 ft 389 kts 330°
2026-04-22 15:15 45.58047 -0.03269 33968 ft 390 kts 329°
2026-04-22 15:15 45.62883 -0.06801 33967 ft 391 kts 329°
2026-04-22 15:16 45.67695 -0.10322 33970 ft 390 kts 329°
2026-04-22 15:16 45.72542 -0.13876 33978 ft 390 kts 329°
2026-04-22 15:17 45.76562 -0.16830 33975 ft 390 kts 329°
2026-04-22 15:17 45.81406 -0.20394 33981 ft 391 kts 329°
2026-04-22 15:18 45.86249 -0.23964 33984 ft 391 kts 329°
2026-04-22 15:18 45.91061 -0.27520 33984 ft 391 kts 329°
2026-04-22 15:19 45.95905 -0.31105 33991 ft 391 kts 329°
2026-04-22 15:19 46.00742 -0.34692 33992 ft 391 kts 329°
2026-04-22 15:20 46.05558 -0.38272 33998 ft 391 kts 329°
2026-04-22 15:20 46.10396 -0.41874 34004 ft 391 kts 329°
2026-04-22 15:21 46.15233 -0.45483 34003 ft 391 kts 329°
2026-04-22 15:21 46.20034 -0.49073 33998 ft 391 kts 329°
2026-04-22 15:22 46.24869 -0.52694 34019 ft 391 kts 329°
2026-04-22 15:22 46.29699 -0.56319 34005 ft 391 kts 329°
2026-04-22 15:23 46.34500 -0.59930 34025 ft 391 kts 329°
2026-04-22 15:23 46.39327 -0.63565 34029 ft 391 kts 329°
2026-04-22 15:24 46.44398 -0.66391 34020 ft 399 kts 348°
2026-04-22 15:24 46.49931 -0.67399 34013 ft 401 kts 348°
2026-04-22 15:25 46.55451 -0.68370 34028 ft 401 kts 348°
2026-04-22 15:25 46.61000 -0.69310 34022 ft 400 kts 349°
2026-04-22 15:26 46.66535 -0.70243 34035 ft 400 kts 349°
2026-04-22 15:26 46.72075 -0.71178 34035 ft 400 kts 349°
2026-04-22 15:27 46.77579 -0.72109 34038 ft 400 kts 349°
2026-04-22 15:27 46.83119 -0.73048 34043 ft 400 kts 349°
2026-04-22 15:28 46.88656 -0.73989 34042 ft 400 kts 349°
2026-04-22 15:28 46.94190 -0.74931 34046 ft 400 kts 349°
2026-04-22 15:29 46.99723 -0.75874 34052 ft 400 kts 349°
2026-04-22 15:30 47.08009 -0.77291 34058 ft 399 kts 349°
2026-04-22 15:30 47.13494 -0.78232 34059 ft 399 kts 349°
2026-04-22 15:31 47.19015 -0.79180 34064 ft 399 kts 349°
2026-04-22 15:31 47.24545 -0.80133 34066 ft 399 kts 349°
2026-04-22 15:32 47.30069 -0.81086 34072 ft 399 kts 349°
2026-04-22 15:32 47.35556 -0.82034 34069 ft 399 kts 349°
2026-04-22 15:33 47.41086 -0.82992 34077 ft 399 kts 349°
2026-04-22 15:33 47.46595 -0.83949 34078 ft 403 kts 349°
2026-04-22 15:34 47.52170 -0.84919 34084 ft 403 kts 349°
2026-04-22 15:34 47.57789 -0.85618 34088 ft 404 kts 351°
2026-04-22 15:35 47.63396 -0.86295 34091 ft 404 kts 351°
2026-04-22 15:35 47.69002 -0.86980 34087 ft 404 kts 351°
2026-04-22 15:36 47.74611 -0.87668 34085 ft 404 kts 351°
2026-04-22 15:36 47.80179 -0.88353 34114 ft 404 kts 351°
2026-04-22 15:37 47.85772 -0.89042 34097 ft 402 kts 351°
2026-04-22 15:37 47.91362 -0.89732 34123 ft 403 kts 351°
2026-04-22 15:38 47.96949 -0.90423 34126 ft 403 kts 351°
2026-04-22 15:38 48.05293 -0.91458 34129 ft 401 kts 351°
2026-04-22 15:39 48.10861 -0.92151 34127 ft 401 kts 351°
2026-04-22 15:39 48.16431 -0.92846 34126 ft 401 kts 351°
2026-04-22 15:40 48.21961 -0.93537 34125 ft 401 kts 351°
2026-04-22 15:40 48.27517 -0.94233 34124 ft 400 kts 351°
2026-04-22 15:41 48.33069 -0.94929 34125 ft 400 kts 351°
2026-04-22 15:41 48.38621 -0.95627 34125 ft 400 kts 351°
2026-04-22 15:42 48.44178 -0.96328 34140 ft 400 kts 351°
2026-04-22 15:42 48.49729 -0.97029 34140 ft 399 kts 351°
2026-04-22 15:43 48.55238 -0.97726 34140 ft 399 kts 351°
2026-04-22 15:43 48.60775 -0.98429 34139 ft 399 kts 351°
2026-04-22 15:44 48.66321 -0.99134 34167 ft 399 kts 351°
2026-04-22 15:44 48.71807 -0.99833 34147 ft 398 kts 351°
2026-04-22 15:45 48.77326 -1.00538 34151 ft 397 kts 351°
2026-04-22 15:45 48.82844 -1.01244 34162 ft 398 kts 351°
2026-04-22 15:46 48.88365 -1.01953 34159 ft 397 kts 351°
2026-04-22 15:46 48.93847 -1.02658 34167 ft 397 kts 351°
2026-04-22 15:47 48.99362 -1.03368 34167 ft 398 kts 351°
2026-04-22 15:47 49.04882 -1.04081 34162 ft 398 kts 351°
2026-04-22 15:48 49.10393 -1.04794 34171 ft 396 kts 351°
2026-04-22 15:48 49.15890 -1.05507 34171 ft 395 kts 351°
2026-04-22 15:49 49.21346 -1.06216 34176 ft 395 kts 351°
2026-04-22 15:49 49.26841 -1.06932 34180 ft 395 kts 351°
2026-04-22 15:50 49.32320 -1.07648 34184 ft 395 kts 351°
2026-04-22 15:50 49.37767 -1.08361 34183 ft 394 kts 351°
2026-04-22 15:51 49.43239 -1.09078 34194 ft 394 kts 351°
2026-04-22 15:51 49.48683 -1.09793 34198 ft 394 kts 351°
2026-04-22 15:52 49.54167 -1.10515 34214 ft 394 kts 351°
2026-04-22 15:52 49.56915 -1.10456 34188 ft 400 kts
2026-04-22 15:52 49.59585 -1.09116 34206 ft 410 kts 22°
2026-04-22 15:53 49.64343 -1.04016 34206 ft 419 kts 31°
2026-04-22 15:53 49.68975 -0.98627 34212 ft 420 kts 32°
2026-04-22 15:54 49.73617 -0.93163 34215 ft 418 kts 29°
2026-04-22 15:54 49.76175 -0.91231 34207 ft 404 kts 10°
2026-04-22 15:54 49.78911 -0.90496 34239 ft 399 kts
2026-04-22 15:55 49.84402 -0.89507 34191 ft 389 kts
2026-04-22 15:55 49.87054 -0.89090 33997 ft 378 kts
2026-04-22 15:55 49.89644 -0.88704 33775 ft 371 kts
2026-04-22 15:56 49.92200 -0.88335 33341 ft 375 kts
2026-04-22 15:56 49.94806 -0.87963 32853 ft 376 kts
2026-04-22 15:56 49.97405 -0.87593 32419 ft 375 kts
2026-04-22 15:56 50.00002 -0.87224 31979 ft 374 kts
2026-04-22 15:57 50.02589 -0.86856 31497 ft 372 kts
2026-04-22 15:57 50.05161 -0.86490 31063 ft 371 kts
2026-04-22 15:57 50.07734 -0.86123 30668 ft 370 kts
2026-04-22 15:57 50.10298 -0.85758 30246 ft 369 kts
2026-04-22 15:58 50.12852 -0.85393 29756 ft 367 kts
2026-04-22 15:58 50.15354 -0.85035 29338 ft 364 kts
2026-04-22 15:58 50.17865 -0.84676 28934 ft 361 kts
2026-04-22 15:58 50.20356 -0.84319 28539 ft 357 kts
2026-04-22 15:59 50.22824 -0.83963 28140 ft 354 kts
2026-04-22 15:59 50.25276 -0.83613 27749 ft 351 kts
2026-04-22 15:59 50.27699 -0.83265 27363 ft 349 kts
2026-04-22 15:59 50.30105 -0.82918 26980 ft 346 kts
2026-04-22 16:00 50.32495 -0.82575 26594 ft 344 kts
2026-04-22 16:00 50.34879 -0.82232 26204 ft 342 kts
2026-04-22 16:00 50.37243 -0.81889 25885 ft 339 kts
2026-04-22 16:00 50.39548 -0.81556 25545 ft 336 kts
2026-04-22 16:01 50.41868 -0.81222 25203 ft 334 kts
2026-04-22 16:01 50.44172 -0.80887 24859 ft 332 kts
2026-04-22 16:01 50.46466 -0.80554 24505 ft 330 kts
2026-04-22 16:01 50.48752 -0.80223 24158 ft 329 kts
2026-04-22 16:02 50.51022 -0.79892 23822 ft 327 kts
2026-04-22 16:02 50.53283 -0.79565 23413 ft 325 kts
2026-04-22 16:02 50.55534 -0.79236 23050 ft 323 kts
2026-04-22 16:02 50.57763 -0.78911 22712 ft 320 kts
2026-04-22 16:03 50.59977 -0.78589 22379 ft 318 kts
2026-04-22 16:03 50.62147 -0.78272 22027 ft 316 kts
2026-04-22 16:03 50.64343 -0.77951 21668 ft 318 kts
2026-04-22 16:03 50.66550 -0.77629 21338 ft 319 kts
2026-04-22 16:04 50.68774 -0.77303 21020 ft 322 kts
2026-04-22 16:04 50.71016 -0.76974 20693 ft 322 kts
2026-04-22 16:04 50.73243 -0.76647 20357 ft 321 kts
2026-04-22 16:04 50.75432 -0.76325 20028 ft 321 kts
2026-04-22 16:05 50.76941 -0.76103 19801 ft 321 kts
2026-04-22 16:05 50.79885 -0.75671 19369 ft 320 kts
2026-04-22 16:05 50.82034 -0.74895 19154 ft 316 kts 22°
2026-04-22 16:05 50.84074 -0.73561 19009 ft 318 kts 22°
2026-04-22 16:06 50.85430 -0.72700 18914 ft 318 kts 22°
2026-04-22 16:06 50.87486 -0.71387 18759 ft 319 kts 22°
2026-04-22 16:06 50.89544 -0.70066 18600 ft 320 kts 24°
2026-04-22 16:06 50.91606 -0.68736 18417 ft 319 kts 23°
2026-04-22 16:07 50.93670 -0.67404 18232 ft 320 kts 23°
2026-04-22 16:07 50.95728 -0.66076 18061 ft 318 kts 23°
2026-04-22 16:07 50.97779 -0.64749 17892 ft 319 kts 23°
2026-04-22 16:07 50.99809 -0.63436 17727 ft 318 kts 25°
2026-04-22 16:08 51.01855 -0.62110 17557 ft 317 kts 25°
2026-04-22 16:08 51.03900 -0.60784 17404 ft 317 kts 25°
2026-04-22 16:08 51.05944 -0.59459 17242 ft 316 kts 25°
2026-04-22 16:08 51.07982 -0.58133 17076 ft 315 kts 23°
2026-04-22 16:09 51.10025 -0.56805 16915 ft 316 kts 23°
2026-04-22 16:09 51.12060 -0.55480 16751 ft 315 kts 24°
2026-04-22 16:09 51.14086 -0.54159 16593 ft 315 kts 24°
2026-04-22 16:09 51.16087 -0.52856 16421 ft 314 kts 26°
2026-04-22 16:10 51.18114 -0.51532 16256 ft 314 kts 26°
2026-04-22 16:10 51.20134 -0.50212 16091 ft 314 kts 26°
2026-04-22 16:10 51.22153 -0.48894 15934 ft 313 kts 26°
2026-04-22 16:10 51.24165 -0.47575 15759 ft 312 kts 24°
2026-04-22 16:11 51.26176 -0.46258 15597 ft 312 kts 24°
2026-04-22 16:11 51.28188 -0.44939 15437 ft 312 kts 25°
2026-04-22 16:11 51.30194 -0.43620 15280 ft 311 kts 25°
2026-04-22 16:11 51.32198 -0.42305 15084 ft 311 kts 26°
2026-04-22 16:12 51.34200 -0.40988 14940 ft 311 kts 26°
2026-04-22 16:12 51.36198 -0.39670 14793 ft 311 kts 25°
2026-04-22 16:12 51.38203 -0.38350 14614 ft 311 kts 27°
2026-04-22 16:12 51.40204 -0.37029 14457 ft 310 kts 27°
2026-04-22 16:13 51.42175 -0.35728 14295 ft 310 kts 27°
2026-04-22 16:13 51.44146 -0.34335 14125 ft 308 kts 31°
2026-04-22 16:13 51.46085 -0.32831 13929 ft 308 kts 29°
2026-04-22 16:13 51.48012 -0.31352 13764 ft 307 kts 28°
2026-04-22 16:14 51.49948 -0.29871 13605 ft 307 kts 29°
2026-04-22 16:14 51.51872 -0.28400 13453 ft 306 kts 28°
2026-04-22 16:14 51.53790 -0.26938 13278 ft 305 kts 30°
2026-04-22 16:14 51.55690 -0.25486 13117 ft 304 kts 30°
2026-04-22 16:15 51.57603 -0.24022 12951 ft 304 kts 29°
2026-04-22 16:15 51.59510 -0.22564 12932 ft 303 kts 30°
2026-04-22 16:15 51.61412 -0.21106 12788 ft 302 kts 29°
2026-04-22 16:15 51.63309 -0.19653 12621 ft 301 kts 30°
2026-04-22 16:16 51.65202 -0.18200 12471 ft 300 kts 29°
2026-04-22 16:16 51.67088 -0.16750 12172 ft 299 kts 29°
2026-04-22 16:16 51.68940 -0.15325 11852 ft 298 kts 30°
2026-04-22 16:16 51.70803 -0.13890 11496 ft 297 kts 30°
2026-04-22 16:17 51.72665 -0.12456 11179 ft 295 kts 29°
2026-04-22 16:17 51.74518 -0.11029 10830 ft 294 kts 30°
2026-04-22 16:17 51.76394 -0.09704 10510 ft 293 kts 27°
2026-04-22 16:17 51.78266 -0.08406 10171 ft 291 kts 28°
2026-04-22 16:18 51.80127 -0.07106 9817 ft 290 kts 28°
2026-04-22 16:18 51.81966 -0.05816 9324 ft 287 kts 27°
2026-04-22 16:18 51.83773 -0.04546 8730 ft 286 kts 27°
2026-04-22 16:18 51.85591 -0.03268 8130 ft 283 kts 28°
2026-04-22 16:19 51.87391 -0.01997 7584 ft 281 kts 27°
2026-04-22 16:19 51.89172 -0.00741 7091 ft 278 kts 28°
2026-04-22 16:19 51.90977 0.00360 6586 ft 279 kts 15°
2026-04-22 16:19 51.92921 0.00286 6065 ft 284 kts 348°
2026-04-22 16:20 51.94677 -0.01198 5618 ft 290 kts 320°
2026-04-22 16:20 51.95885 -0.03805 5225 ft 294 kts 294°
2026-04-22 16:20 51.96287 -0.07007 4928 ft 288 kts 266°
2026-04-22 16:20 51.95831 -0.10078 4558 ft 282 kts 238°
2026-04-22 16:21 51.94645 -0.12519 4205 ft 274 kts 218°
2026-04-22 16:21 51.93214 -0.14567 3844 ft 275 kts 216°
2026-04-22 16:21 51.91763 -0.16560 3619 ft 273 kts 216°
2026-04-22 16:21 51.90295 -0.18504 3397 ft 271 kts 209°
2026-04-22 16:22 51.86867 -0.19183 2951 ft 248 kts 153°
2026-04-22 16:22 51.85451 -0.17667 2781 ft 244 kts 136°
2026-04-22 16:22 51.84157 -0.15886 2665 ft 244 kts 136°
2026-04-22 16:23 51.81598 -0.12352 2595 ft 243 kts 136°
2026-04-22 16:23 51.80308 -0.10600 2569 ft 242 kts 135°
2026-04-22 16:23 51.79009 -0.08862 2557 ft 243 kts 136°
2026-04-22 16:24 51.77710 -0.07109 2555 ft 244 kts 136°
2026-04-22 16:24 51.75107 -0.03622 2540 ft 243 kts 136°
2026-04-22 16:24 51.73842 -0.01834 2540 ft 239 kts 126°
2026-04-22 16:25 51.73121 0.00448 2480 ft 220 kts 99°
2026-04-22 16:25 51.74018 0.04613 2440 ft 198 kts 41°
2026-04-22 16:25 51.75203 0.05488 2533 ft 181 kts 27°
2026-04-22 16:26 51.76306 0.06261 2505 ft 163 kts 33°
2026-04-22 16:26 51.77266 0.07108 2520 ft 154 kts 39°
2026-04-22 16:26 51.78128 0.08106 2488 ft 151 kts 45°
2026-04-22 16:26 51.78925 0.09184 2501 ft 149 kts 47°
2026-04-22 16:27 51.79695 0.10307 2467 ft 149 kts 48°
2026-04-22 16:27 51.80454 0.11439 2327 ft 148 kts 48°
2026-04-22 16:27 51.81200 0.12552 2121 ft 142 kts 47°
2026-04-22 16:27 51.81913 0.13615 1945 ft 139 kts 48°
2026-04-22 16:28 51.82621 0.14676 1763 ft 139 kts 50°
2026-04-22 16:28 51.83313 0.15710 1596 ft 131 kts 50°
2026-04-22 16:28 51.83970 0.16694 1417 ft 127 kts 50°
2026-04-22 16:28 51.84616 0.17673 1196 ft 129 kts 48°
2026-04-22 16:29 51.85282 0.18661 1029 ft 132 kts 47°
2026-04-22 16:29 51.85959 0.19656 835 ft 131 kts 47°
2026-04-22 16:29 51.86629 0.20666 632 ft 132 kts 46°
2026-04-22 16:29 51.87297 0.21686 474 ft 131 kts 46°
2026-04-22 16:30 51.87742 0.22343 379 ft 130 kts 47°
2026-04-22 16:30 51.88463 0.23426 347 ft 60 kts 43°
2026-04-22 16:30 51.88708 0.23794 344 ft 43 kts 43°
2026-04-22 16:30 51.88857 0.24116 351 ft 34 kts 68°
2026-04-22 16:31 51.88892 0.24289 357 ft 7 kts 73°
2026-04-22 16:31 51.88907 0.24371 355 ft 6 kts 73°
2026-04-22 16:31 51.88918 0.24433 356 ft 4 kts 79°
2026-04-22 16:31 51.88917 0.24469 361 ft 4 kts 105°
2026-04-22 16:32 51.88909 0.24562 358 ft 14 kts 73°
2026-04-22 16:32 51.88990 0.24701 357 ft 19 kts 43°
2026-04-22 16:32 51.89094 0.24858 358 ft 22 kts 43°
2026-04-22 16:32 51.89204 0.25027 360 ft 20 kts 50°
2026-04-22 16:33 51.89287 0.25217 356 ft 22 kts 45°
2026-04-22 16:33 51.89403 0.25392 355 ft 24 kts 43°
2026-04-22 16:33 51.89509 0.25550 358 ft 14 kts 43°
2026-04-22 16:33 51.89585 0.25666 355 ft 14 kts 43°
2026-04-22 16:34 51.89595 0.25788 359 ft 13 kts 129°
2026-04-22 16:34 51.89539 0.25854 355 ft 10 kts 145°
2026-04-22 16:34 51.89483 0.25941 358 ft 13 kts 133°
2026-04-22 16:34 51.89447 0.25999 359 ft 6 kts 154°
2026-04-22 16:35 51.89413 0.25977 361 ft 4 kts 222°
2026-04-22 16:35 51.89399 0.25955 361 ft 0 kts 223°
2026-04-22 16:35 51.89394 0.25947 363 ft 0 kts 223°
2026-04-22 16:35 51.89393 0.25946 363 ft 0 kts 223°